Location: Czu?�w
(50.1404°N, 18.9919°E)
Time: 03:19:42
(UTC+00:00)

CZ-2D R/B - Pass Details

Date: 27 October 2020
Orbit: 521 x 537 km, 97.4° (Epoch: 27 November)

Event Time Altitude Azimuth Distance (km) Brightness Sun altitude
Rises 16:08:18 0° 138° (SE) 2,653 6.5 -6.9°
Reaches altitude 10° 16:10:35 10° 126° (SE) 1,767 5.5 -7.3°
Maximum altitude 16:13:52 28° 67° (ENE) 1,010 4.1 -7.8°
Drops below altitude 10° 16:17:09 10° 7° (N) 1,774 5.7 -8.3°
Sets 16:19:28 0° 356° (N) 2,666 6.8 -8.7°
